RH
89 98 99 100 99 96 97 95 97 97 99 98 99 100 98 99 100 100 98 99 99 100 99 98 98 98 99
88 89 91 92 90 97 100 99 98 100 100 98 99 99 100 99 99 99 99 100 100 98 97 98 98 97 98
87 85 90 97 96 98 99 99 99 99 99 98 99 100 100 100 100 99 100 99 97 97 95 64 58 77 96
97 98 99 99 99 99 99 100 99 98 99 98 99 98 98 97 97 99 98 93 72 40 24 22 25 43 91
91 94 95 98 99 99 99 99 99 96 91 86 80 72 62 52 43 37 34 33 26 22 22 32 41 76 100
62 64 56 59 63 63 62 60 56 50 44 39 36 32 29 23 21 21 19 19 22 34 42 66 100 100 100
15 18 23 28 38 39 41 42 42 41 37 21 24 20 16 15 20 27 36 42 46 50 54 62 69 80 83
22 27 29 34 38 39 42 41 36 31 30 25 20 31 44 44 44 46 48 51 54 56 57 55 48 45 42
26 33 41 49 46 33 30 33 22 23 35 45 44 44 44 47 47 49 50 52 52 55 56 55 54 51 42
31 29 27 29 31 33 32 34 49 55 58 60 57 54 49 46 48 50 50 55 58 58 58 56 53 45 38
25 25 27 32 35 41 56 63 65 67 68 70 69 66 66 55 47 53 58 62 63 58 55 56 57 52 48
28 30 36 52 63 65 66 66 67 66 68 74 79 77 84 77 61 48 52 57 60 56 58 57 58 57 57
41 54 63 66 67 67 67 64 64 68 72 78 79 80 84 80 76 62 67 55 58 54 55 56 56 60 59
49 60 66 66 63 63 63 65 63 65 79 88 89 92 88 84 84 70 72 81 70 70 72 66 62 59 58
40 44 53 64 65 68 70 70 68 64 66 80 95 96 93 88 84 76 72 72 71 73 77 74 68 65 63
34 37 38 51 63 69 74 73 71 68 67 70 78 87 87 81 83 78 76 76 75 79 79 81 75 65 64
30 31 35 37 42 48 52 58 57 58 60 64 72 82 92 92 79 82 83 78 85 86 82 79 80 64 66
Wind_Speed
18 21 22 23 17 17 14 11 8 10 18 20 21 24 27 25 28 26 22 22 22 26 23 20 19 17 17
17 19 18 17 15 12 11 11 10 17 19 20 22 24 25 22 20 19 22 24 25 26 26 26 24 20 18
14 16 15 11 11 11 11 11 11 13 17 20 23 26 26 26 25 23 23 24 24 24 23 22 20 18 17
10 11 12 11 10 9 9 8 9 11 13 15 18 19 20 21 21 22 22 22 22 21 20 20 19 19 17
10 9 10 11 10 10 9 10 10 10 10 11 12 13 15 17 18 20 22 23 22 20 17 17 17 14 13
10 11 11 10 11 11 10 10 9 10 11 11 14 15 17 18 20 20 20 19 17 16 14 13 15 15 15
11 11 11 12 13 13 13 14 14 15 18 18 17 16 17 17 16 16 14 13 13 13 14 14 15 15 15
10 11 12 13 14 15 15 16 17 16 16 15 12 9 9 11 11 11 10 11 13 14 15 16 16 19 20
10 10 11 11 14 13 12 12 12 9 11 12 12 12 10 10 11 13 14 15 17 17 15 17 19 23 24
11 12 11 11 11 10 9 9 9 8 6 10 12 14 8 10 10 13 14 15 16 16 15 20 22 25 25
10 9 8 7 7 8 8 9 11 12 14 16 16 17 16 19 18 14 14 15 21 25 24 25 26 27 26
8 7 7 7 8 10 11 13 14 14 14 16 20 19 19 23 26 21 18 18 22 25 28 28 27 27 24
9 8 9 10 12 14 15 16 17 16 16 16 17 18 19 22 26 26 27 23 21 18 15 18 22 25 26
11 12 13 14 15 15 16 16 18 14 13 15 16 18 21 22 24 27 27 28 24 24 25 24 24 28 29
14 16 15 15 15 16 16 17 18 18 15 11 14 19 22 24 27 26 26 28 27 23 24 28 24 21 22
15 17 17 17 17 17 17 18 19 20 20 18 18 20 23 25 25 26 26 28 25 22 20 27 30 24 25
17 17 17 17 18 18 18 19 20 20 21 21 20 20 24 29 32 26 25 25 26 26 25 27 31 28 28
Wind_Direction
301 301 303 298 301 302 301 295 278 235 216 222 238 240 244 253 254 257 255 250 247 245 250 254 260 264 267
296 298 303 307 310 300 282 287 255 227 242 250 251 257 249 252 247 248 250 251 255 259 259 260 263 265 266
306 306 303 304 302 302 294 282 269 256 251 251 248 249 254 253 256 259 253 252 257 262 265 265 261 260 260
309 307 312 313 313 307 298 287 275 266 260 256 253 252 255 253 252 256 260 262 262 264 265 263 262 259 259
311 310 307 310 308 304 299 293 289 280 269 264 259 257 256 259 259 258 258 260 262 262 261 259 259 263 263
306 304 303 301 301 302 300 296 295 280 273 274 276 274 273 271 268 266 264 264 263 260 257 255 249 255 260
300 299 297 295 294 294 294 294 291 290 291 288 289 285 277 272 266 262 260 255 252 251 251 255 262 263 260
299 298 294 292 293 295 299 299 299 302 301 307 309 298 286 278 271 266 261 255 253 255 260 259 264 272 275
300 295 290 289 291 296 296 296 300 307 302 303 313 312 297 278 270 261 259 259 255 253 250 264 268 274 277
303 299 295 290 289 297 304 308 316 326 313 317 314 321 319 293 278 271 268 264 247 239 262 279 277 279 280
312 307 300 296 295 297 300 302 302 294 294 301 299 305 300 291 277 270 271 266 257 251 260 280 276 276 275
310 306 300 296 294 290 290 290 290 290 288 285 288 295 293 294 292 294 282 269 267 263 265 267 261 264 265
305 300 294 290 288 288 287 289 291 295 292 288 287 289 286 288 293 296 300 300 295 285 274 269 258 248 252
297 295 293 291 292 292 291 291 290 292 286 288 290 288 288 289 290 294 298 296 300 296 293 281 268 264 266
299 299 296 296 296 295 295 295 295 299 293 284 279 282 286 291 289 295 300 295 297 297 293 292 289 284 278
302 303 306 304 302 300 299 299 298 301 300 300 294 290 289 286 289 298 294 295 298 295 291 293 294 294 292
305 305 305 306 305 304 305 303 302 301 299 300 298 301 301 298 303 299 298 301 302 297 297 294 295 297 295